Flag for Malaysia Weather past 2 weeks in Langkawi, Malaysia

Now
79 °F

Partly cloudy.


Feels Like: 82 °F
Forecast: 78 / 87 °F
Wind: 3 mph from Northeast

Location: Langkawi

Current Time: Dec 28, 2014 at 5:00:35 AM

Latest Report: Dec 28, 2014 at 4:00 AM


Visibility: N/A

Pressure: 29.80 "Hg

Humidity: 89%

Dew point: 75 °F

Location of LangkawiLocation

Historic Weather in Langkawi — Graph

°F

Langkawi temperature yesterday

Maximum temperature yesterday: 88 °F (at 1:00 PM)
Minimum temperature yesterday: 75 °F (at 8:00 AM)
Average temperature yesterday: 82 °F

Past Weeks' High & Low Weather Summary

 TemperatureHumidityPressure
High90 °F (Dec 13, 3:00 PM)100% (Dec 21, 4:00 PM)29.92 "Hg (Dec 21, 4:00 PM)
Low75 °F (Dec 27, 8:00 AM)62% (Dec 19, 2:00 PM)29.71 "Hg (Dec 22, 5:00 PM)
Average81 °F83%29.81 "Hg
* Reported Dec 13 4:00 AM — Dec 28 4:00 AM, Langkawi, Weather by CustomWeather, © 2014

Note: Actual official high and low records may vary slightly from our data, if they occured in-between our weather recording intervals... More about our weather records

Advertising

Langkawi weather history for previous 24 hours

 ConditionsComfort  
Time TempWeatherWind HumidityBarometerVisibility
4:00 AM
Dec 28
79 °FPartly cloudy.3 mph89%29.80 "HgN/A
3:00 AM79 °FPartly cloudy.No wind89%29.83 "HgN/A
2:00 AM79 °FPassing clouds.No wind89%29.86 "HgN/A
1:00 AM81 °FPartly cloudy.1 mph84%29.86 "HgN/A
12:00 AM81 °FPassing clouds.2 mph84%29.86 "HgN/A
11:00 PM
Dec 27
81 °FPartly cloudy.2 mph84%29.86 "HgN/A
10:00 PM81 °FPartly cloudy.No wind89%29.86 "HgN/A
9:00 PM81 °FPassing clouds.1 mph89%29.83 "HgN/A
8:00 PM82 °FPassing clouds.1 mph84%29.80 "HgN/A
7:00 PM86 °FBroken clouds.1 mph79%29.77 "HgN/A
6:00 PM88 °FBroken clouds.5 mph70%29.77 "HgN/A
5:00 PM88 °FBroken clouds.7 mph70%29.74 "HgN/A
4:00 PM88 °FBroken clouds.6 mph70%29.77 "HgN/A
3:00 PM86 °FBroken clouds.5 mph75%29.77 "HgN/A
2:00 PM88 °FBroken clouds.6 mph70%29.80 "HgN/A
1:00 PM88 °FBroken clouds.6 mph70%29.83 "HgN/A
12:00 PM86 °FPartly sunny.8 mph75%29.86 "HgN/A
11:00 AM84 °FBroken clouds.1 mph79%29.86 "HgN/A
10:00 AM82 °FBroken clouds.No wind84%29.83 "HgN/A
9:00 AM79 °FBroken clouds.No wind94%29.80 "HgN/A
8:00 AM75 °FBroken clouds.No wind100%29.77 "HgN/A
7:00 AM77 °FPartly cloudy.1 mph94%29.77 "HgN/A
6:00 AM77 °FPartly cloudy.1 mph94%29.74 "HgN/A
5:00 AM79 °FPartly cloudy.5 mph89%29.74 "HgN/A
Weather by CustomWeather, © 2014

See weather overviewHow to use our weather pages